Weather History for Waukegan, IL

Change the Weather History Date:

Monday, April 28, 2014

  Actual Average Record
Temperature  
Mean Temperature 42 °F -  
Max Temperature 45 °F 60 °F 78 °F (2004)
Min Temperature 39 °F 41 °F 29 °F (2010)
Degree Days  
Heating Degree Days 23 14  
Month to date heating degree days 599 544  
Since 1 July heating degree days 7607 6414  
Cooling Degree Days 0 0  
Month to date cooling degree days 0 0  
Year to date cooling degree days 0 0  
Moisture  
Dew Point 38 °F    
Average Humidity 81    
Maximum Humidity 92    
Minimum Humidity 70    
Precipitation  
Precipitation 0.55 in 0.15 in 0.55 in (2014)
Month to date precipitation 2.47 3.14  
Year to date precipitation 5.25 8.51  
Sea Level Pressure  
Sea Level Pressure 29.70 in    
Wind  
Wind Speed 14 mph (ENE)    
Max Wind Speed 24 mph    
Max Gust Speed 32 mph    
Visibility 8 miles    
Events Rain , Thunderstorm    
T = Trace of Precipitation, MM = Missing Value Source: NWS Daily Summary

Daily Weather History Graph

Daily Weather History Graph

Search for Another Location

Airport:

Trip Planner

Search our weather history database for the weather conditions in past years. The results will help you decide how hot, cold, wet, or windy it might be!

Date:

Astronomy

Apr. 28, 2014 Rise Set
Actual Time 5:50 AM CDT 7:47 PM CDT
Civil Twilight 5:20 AM CDT 8:18 PM CDT
Nautical Twilight 4:43 AM CDT 8:55 PM CDT
Astronomical Twilight 4:02 AM CDT 9:36 PM CDT
Moon 5:29 AM CDT (4/28) 7:25 PM CDT (4/28)
Length of Visible Light 14h 58m
Length of Day
13h 57m
Waning Crescent, 0% of the Moon is Illuminated
Apr 28
Waning Crescent
Apr 29
New
May 6
First Quarter
May 14
Full
May 21
Last Quarter

Hourly Weather History & Observations

Time (CDT) Temp. Windchill Dew Point Humidity Pressure Visibility Wind Dir Wind Speed Gust Speed Precip Events Conditions
2:52 AM 42.1 °F 34.5 °F 34.0 °F 73% 29.85 in 10.0 mi ENE 15.0 mph - 0.02 in   Overcast
3:52 AM 41.0 °F 32.5 °F 34.0 °F 76% 29.83 in 10.0 mi ENE 17.3 mph - 0.03 in   Overcast
5:52 AM 41.0 °F 34.3 °F 34.0 °F 76% 29.79 in 10.0 mi ENE 11.5 mph - 0.00 in   Overcast
6:52 AM 41.0 °F 33.1 °F 34.0 °F 76% 29.80 in 6.0 mi East 15.0 mph - 0.00 in Rain Light Rain
7:32 AM 39.9 °F 31.8 °F 35.1 °F 83% 29.79 in 2.0 mi East 15.0 mph - 0.06 in Rain Rain
7:52 AM 39.9 °F 32.1 °F 36.0 °F 86% 29.81 in 2.0 mi East 13.8 mph - 0.09 in Rain Light Rain
8:42 AM 39.9 °F 31.8 °F 37.0 °F 89% 29.77 in 2.0 mi East 15.0 mph - 0.08 in Rain Light Rain
10:52 AM 41.0 °F 32.5 °F 36.0 °F 82% 29.74 in 10.0 mi ENE 17.3 mph 31.1 mph N/A   Overcast
11:52 AM 42.1 °F 34.2 °F 37.0 °F 82% 29.75 in 4.0 mi East 16.1 mph 25.3 mph 0.04 in Rain Rain
12:39 PM 41.0 °F 32.8 °F 37.0 °F 86% 29.70 in 7.0 mi ENE 16.1 mph - 0.03 in Rain Light Rain
1:52 PM 43.0 °F 35.4 °F 37.0 °F 80% 29.69 in 10.0 mi ENE 16.1 mph 25.3 mph 0.00 in   Overcast
2:44 PM 43.0 °F 36.4 °F 37.0 °F 80% 29.68 in 10.0 mi ENE 12.7 mph - N/A   Overcast
2:52 PM 43.0 °F 36.8 °F 37.0 °F 80% 29.70 in 10.0 mi East 11.5 mph - N/A   Overcast
3:37 PM 44.1 °F 38.1 °F 37.0 °F 76% 29.66 in 10.0 mi ENE 11.5 mph - N/A   Overcast
3:52 PM 45.0 °F 39.3 °F 37.9 °F 76% 29.66 in 10.0 mi NE 11.5 mph - N/A   Overcast
5:52 PM 44.1 °F 38.6 °F 39.0 °F 82% 29.63 in 7.0 mi ENE 10.4 mph - 0.06 in Rain Light Rain
6:52 PM 43.0 °F 36.4 °F 39.0 °F 86% 29.63 in 10.0 mi ENE 12.7 mph - 0.03 in   Overcast
7:52 PM 43.0 °F 37.7 °F 39.9 °F 89% 29.65 in 10.0 mi ENE 9.2 mph - 0.03 in   Overcast
8:52 PM 44.1 °F 38.6 °F 39.9 °F 85% 29.65 in 10.0 mi ENE 10.4 mph - N/A   Overcast
10:16 PM 44.1 °F 40.1 °F 39.9 °F 85% 29.66 in 4.0 mi East 6.9 mph - 0.04 in Rain , Thunderstorm Rain
10:39 PM 43.0 °F 38.2 °F 39.9 °F 89% 29.64 in 6.0 mi ENE 8.1 mph - 0.11 in Rain Light Rain
10:52 PM 44.1 °F 38.1 °F 41.0 °F 89% 29.64 in 7.0 mi ENE 11.5 mph - 0.11 in Rain Light Rain
11:06 PM 44.1 °F 38.1 °F 41.0 °F 89% 29.60 in 7.0 mi ENE 11.5 mph - 0.00 in Rain Light Rain
11:52 PM 43.0 °F 34.8 °F 41.0 °F 93% 29.58 in 6.0 mi ENE 18.4 mph 25.3 mph 0.00 in   Overcast